Regional Weather Roundup
Issued by NWS Grand Forks, ND

Home | Current Version | Previous Version | Graphics & Text | Print | Product List | Glossary On
Versions: 1 2 3 4 5 6 7 8 9 10 11 12 13 14 15 16 17 18 19 20 21 22 23 24 25 26 27 28 29 30 31 32 33 34 35 36 37 38 39 40 41 42 43 44 45 46 47 48 49 50
691
ASUS43 KFGF 050510
RWRFGF
PRAIRIE TO PINES  WEATHER ROUNDUP
NATIONAL WEATHER SERVICE EASTERN NORTH DAKOTA/GRAND FORKS ND
1200 AM CDT THU MAY 05 2016

 **SATELLITE DATA USED TO AUGMENT SKY COVER AT AUTOMATED STATIONS**
 *****  WEATHER ACROSS EASTERN NORTH DAKOTA  *****

CITY           SKY/WX    TMP DP  RH WIND       PRES   REMARKS
GRAND FORKS    CLEAR     55  30  38 S8        29.90F
GRAND FRKS AFB PTCLDY    55  28  35 S9        29.90F
DEVILS LAKE    CLEAR     61  41  47 S8        29.90F
FARGO          PTCLDY    57  28  33 S7        29.94F
WAHPETON ARPT  PTCLDY    46  27  46 S5        29.98S
$$

 ***** WEATHER ACROSS CENTRAL AND WESTERN NORTH DAKOTA  *****

CITY           SKY/WX    TMP DP  RH WIND       PRES   REMARKS
BISMARCK       CLEAR     56  46  69 CALM      29.95S
MINOT          CLEAR     72  42  34 S15       29.86F
JAMESTOWN      CLEAR     58  35  42 S12       29.93F
MINOT AFB      CLEAR     65  44  46 S14       29.84F
GARRISON         N/A     58  43  57 SE5       29.90S
WILLISTON      CLEAR     52  43  71 CALM      29.86S
DICKINSON      CLEAR     55  42  61 S10       29.93S
HETTINGER      CLEAR     58  42  55 S9        29.99S
$$

 *****  OTHER AIRPORT OBSERVATIONS IN OUR AREA  *****

CITY           SKY/WX    TMP DP  RH WIND       PRES   REMARKS
WALHALLA       FAIR      63  36  36 S9        29.84F
GRAFTON AIRPOR FAIR      52  34  50 S9        29.90F
VALLEY CITY AR FAIR      50  32  50 S9        29.96F
CANDO          FAIR      55  39  54 S8        29.89S
CAVALIER APRT  FAIR      57  32  38 S12       29.86F
GWINNER        FAIR      52  37  58 S9        29.97F
SHEYENNE NWR     N/A     48  35  61 CALM      29.95S
ROLLA          MOCLDY    57  39  51 SW12      29.88S
 ***** THE ABOVE OBSERVATIONS ARE NON NWS ARE NOT QUALITY
       CONTROLLED AND MAY MIS-REPORT RAIN FOR SNOW...
$$

  *****  WEATHER ACROSS NORTHERN MINNESOTA  *****

CITY           SKY/WX    TMP DP  RH WIND       PRES   REMARKS
FLAG ISLAND    CLOUDY    52  32  46 SE12      29.90S
WARROAD        CLOUDY    48  37  66 SE6       29.91S
ROSEAU         CLEAR     52  32  46 S7        29.89F
HALLOCK        CLEAR     54  27  35 S10       29.87F
THF RVR FALLS  CLEAR     50  27  40 S8        29.92F
BAUDETTE       CLOUDY    47  32  56 E7        29.94F
WASKISH        PTCLDY    43  34  70 CALM      29.95F
CROOKSTON      CLEAR     54  30  40 S8        29.92F
STEPHEN NDAWN    N/A     55  32  41 S10         N/A
GREENBUSH NDAW   N/A     48  34  57 S5          N/A
$$
  *****  WEATHER ACROSS CENTRAL AND WEST MINNESOTA  *****

CITY           SKY/WX    TMP DP  RH WIND       PRES   REMARKS
FOSSTON        CLEAR     48  30  49 S8        29.94F
BEMIDJI        CLEAR     40  27  59 SE3       29.96S
PARK RAPIDS    CLEAR     42  31  64 W3        29.96F
ELBOW LAKE     FAIR      51  44  75 SE5       29.99S
WADENA         CLEAR     45  32  61 CALM      29.98S
DETROIT LAKES  CLEAR     50  36  57 S3        29.98F
MOORHEAD       PTCLDY    54  34  47 SE6       29.96F
FERGUS FALLS   CLEAR     54  34  47 CALM      29.96R
MORRIS MN      CLEAR     50  30  46 CALM      29.98S
STAPLES        CLEAR     43  28  56 CALM      29.98F
$$
  *****  WEATHER ELSEWHERE ACROSS MINNESOTA  *****

CITY           SKY/WX    TMP DP  RH WIND       PRES   REMARKS
DULUTH         CLEAR     40  28  62 SE3       29.99R
INTRNTL FALLS  CLOUDY    44  31  60 CALM      29.96S
ELY            CLEAR     34  28  80 CALM      29.99R
CLOQUET        CLEAR     37  28  70 CALM      29.99R
WHEATON        CLEAR     50  34  53 S5        30.01S
BRAINERD       CLEAR     42  28  57 CALM      29.98F
HIBBING        CLEAR     31  24  75 CALM      29.98R
ALEXANDRIA     CLEAR     48  28  46 CALM      30.00R
SAINT CLOUD    CLEAR     42  31  64 CALM      29.98S
MINNEAPOLIS    CLEAR     52  29  41 E6        29.99R
$$

  *****  WEATHER ACROSS SOUTH DAKOTA  *****

CITY           SKY/WX    TMP DP  RH WIND       PRES   REMARKS
SIOUX FALLS    CLEAR     46  37  71 W3        30.03R
BROOKINGS      CLEAR     47  34  60 CALM      30.02S
WATERTOWN      CLEAR     49  39  68 SW3       30.02S
HURON          CLEAR     51  42  71 CALM      30.02R
SISSETON         N/A     47  32  56 SW6       29.98S
ABERDEEN       CLEAR     48  36  63 S3        29.99F
MITCHELL       CLEAR     54  41  61 CALM      30.02F
PIERRE         CLEAR     57  40  52 S7        30.01S
MOBRIDGE       CLEAR     55  45  68 SE6       29.97F
RAPID CITY     CLEAR     53  43  68 SE5       30.02F
$$

  *****  SOME WEATHER IN NEARBY STATES *****

CITY           SKY/WX    TMP DP  RH WIND       PRES   REMARKS
GLASGOW MT     CLOUDY    61  40  45 E10       29.83S
GREAT FALLS MT CLOUDY    55  37  50 W8        29.89R
CHEYENNE WY    CLEAR     52  35  52 S7        30.18S
SCOTTSBLUFF NE CLEAR     54  42  64 E6        30.09S
OMAHA NE       CLEAR     52  43  71 CALM      30.01S
DES MOINES IA  CLEAR     55  35  47 N5        29.98R
DAVENPORT IA   PTCLDY    47  33  58 NE14      29.93R
CHICAGO IL     MOCLDY    42  34  73 N14       29.88S
EAU CLAIRE WI  CLEAR     44  28  53 N3        29.99S
LA CROSSE WI   CLEAR     51  29  42 NE6       29.98R
$$

  *****  SOME NATIONAL WEATHER *****

CITY           SKY/WX    TMP DP  RH WIND       PRES   REMARKS
LA GUARDIA NY  CLOUDY    50  46  86 NE16      29.74S
RALEIGH NC     PTCLDY    56  51  84 CALM      29.62F
ATLANTA GA     CLOUDY    56  51  84 NW13      29.76S
NEW ORLEANS LA CLEAR     65  53  65 W7        29.90F
OKLAHOMA CITY  CLEAR     62  42  47 N7        30.04S
ALBUQUERQUE NM CLEAR     65  23  20 E10       30.19R
SALT LAKE CITY CLOUDY    64  41  42 SW7       29.95R
LOS ANGELES CA MOCLDY    60  51  72 W8        29.94R
BOISE ID       PTCLDY    68  37  32 S17G24    29.82R
SEATTLE WA     CLOUDY    55  45  68 N5        30.02R
$$

*** WEATHER ACROSS MANITOBA...SASKATCHEWAN AND ONTARIO ***
                ***ONTARIO***

CITY           SKY/WX    TMP DP  RH WIND       PRES   REMARKS
GERALDTON      CLOUDY    34  32  93 VRB2      29.99S
THUNDER BAY    PTCLDY    32  30  93 NW3       30.01S
SIOUX LOOKOUT  MOCLDY    43  30  61 S5        29.92F
TORONTO        PTCLDY    50  43  76 E6        29.76S
BIG TROUT LK   CLOUDY    37  27  65 S5        29.77F
PICKLE LAKE    NOT AVBL
DRYDEN         LGT RAIN  50  30  46 S5        29.94R
KENORA         MOCLDY    52  27  37 S9        29.90F
$$
                *** MANITOBA***

CITY           SKY/WX    TMP DP  RH WIND       PRES   REMARKS
BRANDON        PTCLDY    63  43  48 SW12      29.77F
DAUPHIN        CLEAR     73  37  27 SW13G18   29.67F
ISLAND LAKE    PTCLDY    50  32  50 S6        29.69F
PILOT MOUND      N/A     59  37  44 S15         N/A
THE PAS        PTCLDY    57  46  67 SE8       29.56F
THOMPSON       CLEAR     48  37  66 S3        29.59F
WINNIPEG       CLEAR     59  32  36 S17G24    29.81F
LYNN LAKE      MOCLDY    59  41  51 NE3       29.59S
CHURCHILL      PTCLDY    30  28  93 NE17      29.68R WCI  18
GILLAM         CLEAR     46  36  66 S8        29.59F
$$
                ***SASKATCHEWAN***

CITY           SKY/WX    TMP DP  RH WIND       PRES   REMARKS
ESTEVAN        PTCLDY    54  41  62 S7        29.82F
KINDERSLEY     MOCLDY    70  41  35 SW24G35   29.75R
LLOYDMINSTER   CLEAR     57  39  51 SE3       29.70R
PRINCE ALBERT  PTCLDY    66  36  32 W8        29.65S
REGINA         CLEAR     57  34  41 SW12      29.78R
YORKTON        CLEAR     66  41  39 SW12      29.71S
N. BATTLEFORD  CLEAR     63  37  39 SE6       29.71R
LA RONGE       PTCLDY    70  37  30 SW7       29.53F
SASKATOON      PTCLDY    63  36  36 SW3       29.71S
SWIFT CURRENT  CLEAR     63  34  34 S13       29.79F
$$
NOTE: THESE ARE AUTOMATED STATIONS WITH LIMITED QUALITY CONTROL
      "FAIR" INDICATES FEW OR NO CLOUDS BELOW 12,000 FEET WITH NO
      SIGNIFICANT WEATHER AND/OR OBSTRUCTIONS TO VISIBILITY.
      SKY/WX - SKY CONDITION AND SIGNIFICANT WEATHER.
      TMP - AIR TEMPERATURE.    DP   - DEWPOINT TEMPERATURE.
      RH  - RELATIVE HUMIDITY.  PRES - PRESSURE.
      HX  - HEAT INDEX.         WCI  - WIND CHILL INDEX.
$




USA.gov is the U.S. government's official web portal to all federal, state and local government web resources and services.